Weather Roundup
Issued by NWS

Home | Current Version | Previous Version | Text Only | Print | Product List | Glossary On
Versions: 1 2 3 4 5 6 7 8 9 10 11 12 13 14 15 16 17 18 19 20 21 22 23 24 25 26 27 28 29 30 31 32 33 34 35 36 37 38 39 40 41 42 43 44 45 46 47 48 49 50
000
NZUS93 KARX 281810
HRRWXR

CURRENT HOURLY OBSERVATIONS ACROSS
MUCH OF THE UPPER MISSISSIPPI VALLEY
NATIONAL WEATHER SERVICE LA CROSSE WI
100 PM CDT THU MAY 28 2015


...SOUTHEAST MINNESOTA...


CITY           SKY/WX    TMP DP  RH WIND       PRES   REMARKS
ROCHESTER      MOSUNNY   79  57  46 S21       30.10F
ROCHESTER/MAYO FAIR      79  55  43 S14G21    30.09F
WINONA         SUNNY     81  57  44 SW8       30.08F
AUSTIN         MOSUNNY   77  57  50 S14G21    30.08F
ALBERT LEA     MOSUNNY   81  54  39 S13G20    30.07F
DODGE CENTER   SUNNY     81  55  41 S18G29    30.08F
PRESTON        MOSUNNY   77  55  45 S20       30.11F
OWATONNA       MOSUNNY   81  54  39 S18       30.06F
FARIBAULT      MOSUNNY   81  55  41 S9G20     30.06F
$$

...ELSEWHERE IN MINNESOTA...


CITY           SKY/WX    TMP DP  RH WIND       PRES   REMARKS
MINNEAPOLIS    MOSUNNY   82  53  36 SW13G23   30.03F
INTNL FALLS    LGT RAIN  57  54  89 NW5       29.99S
DULUTH         PTSUNNY   50  44  80 SE14      30.07F
RED WING         N/A     82  52  34 SW12G17   30.05S
REDWOOD FALLS  MOSUNNY   82  49  31 SW14      29.99F
MANKATO        MOSUNNY   81  55  41 S16G25    30.04F
WORTHINGTON    MOSUNNY   79  48  34 S18G24    30.02F
FAIRMONT       MOSUNNY   79  54  41 S22       30.04S
$$

...SOUTHWEST WISCONSIN...


CITY           SKY/WX    TMP DP  RH WIND       PRES   REMARKS
LA CROSSE      SUNNY     83  59  44 S13       30.09F
PRAIRIE DU CHI MOSUNNY   80  53  39 S8        30.11F
BOSCOBEL       MOSUNNY   82  58  43 VRB5      30.12F
LONE ROCK      MOSUNNY   80  58  46 S13G18    30.13F
PLATTEVILLE    MOSUNNY   79  56  45 S10G18    30.15F
FORT MC COY    MOSUNNY   82  54  38 S3G16     30.11F
CAMP DOUGLAS   PTSUNNY   82  61  47 SW14      30.11F
VIROQUA        FAIR      78  54  42 S13       30.14S
WIS DELLS      MOSUNNY   79  59  49 S10       30.14S
$$

...ELSEWHERE IN WISCONSIN...


CITY           SKY/WX    TMP DP  RH WIND       PRES   REMARKS
MILWAUKEE      PTSUNNY   77  58  51 SE15      30.17F
MADISON        PTSUNNY   81  57  43 S14       30.15F
GREEN BAY      SUNNY     80  64  58 S8        30.13F
EAU CLAIRE     SUNNY     83  52  34 S20       30.07F
BLACK RVR FLS  FAIR      84  51  31 SW10G16   30.09F
MEDFORD        SUNNY     78  60  54 SW8       30.12F
WAUSAU         SUNNY     80  58  46 S9        30.10F
WIS RAPIDS     MOSUNNY   83  55  38 SW10      30.13F
MARSHFIELD     MOSUNNY   82  56  40 S7G17     30.11F
RICE LAKE      SUNNY     82  51  33 S13G20    30.07F
$$

...NORTHEAST IOWA...


CITY           SKY/WX    TMP DP  RH WIND       PRES   REMARKS
DECORAH        PTSUNNY   79  57  47 S10G21    30.12S
MASON CITY     PTSUNNY   78  56  46 S16G23    30.09F
CHARLES CITY   PTSUNNY   79  55  44 S17       30.10F
OELWEIN          N/A    N/A N/A N/A MISG        N/A
$$

...ELSEWHERE IN IOWA...


CITY           SKY/WX    TMP DP  RH WIND       PRES   REMARKS
DES MOINES     CLOUDY    77  58  51 S13       30.07F
IOWA CITY      MOSUNNY   79  58  48 S13       30.13F
FORT DODGE     CLOUDY    77  59  53 SE8       30.07F
$$

...NORTHERN ILLINOIS...


CITY           SKY/WX    TMP DP  RH WIND       PRES   REMARKS
CHICAGO-OHARE  PTSUNNY   81  56  42 SE10G18   30.17F
CHICAGO-MIDWAY PTSUNNY   81  58  45 SE12      30.17F
MOLINE         SUNNY     82  53  36 SE16      30.13F
ROCKFORD       PTSUNNY   81  57  43 S10       30.17F
PEORIA         MOSUNNY   82  53  36 SE10G20   30.15F
$$

NOTE: "FAIR" INDICATES FEW OR NO CLOUDS BELOW 12,000 FEET WITH NO
SIGNIFICANT WEATHER AND/OR OBSTRUCTIONS TO VISIBILITY. WIND
SPEEDS ARE IN MILES-PER-HOUR.



USA.gov is the U.S. government's official web portal to all federal, state and local government web resources and services.